RH
11 11 10 12 12 14 18 24 30 34 44 59 55 49 41 28 17 10 8 10 9 8 7 6 7 8 8 8 9 9 9 3 1 1 2 5 11 58 50 45 55 43 43 23 15
14 13 13 13 14 16 18 21 29 34 44 53 57 49 43 28 16 10 11 10 10 9 9 10 10 11 12 12 12 10 3 1 1 2 3 13 41 51 55 53 51 33 32 13 11
16 16 16 16 17 19 21 24 30 34 35 49 59 53 43 30 19 14 14 12 11 12 14 14 14 15 14 13 11 3 2 1 2 2 12 17 46 60 58 46 39 58 68 31 30
18 19 20 20 21 23 26 30 34 36 36 46 56 56 45 33 20 17 14 14 15 16 16 16 17 16 13 12 5 2 2 2 2 10 20 47 66 79 79 91 70 97 98 37 71
24 23 25 24 25 29 31 33 42 40 40 52 63 59 48 38 23 18 17 18 18 18 19 19 18 15 12 8 3 3 2 2 5 20 54 62 97 100 100 100 94 100 100 30 18
32 30 30 29 30 34 38 38 42 44 56 64 80 59 50 42 26 20 19 20 20 18 23 21 17 14 10 5 3 2 2 2 21 38 44 59 80 98 100 100 92 90 70 23 20
37 40 37 39 38 41 45 45 43 51 59 67 89 66 50 41 28 20 21 22 19 24 25 19 15 10 8 4 3 2 2 3 27 32 42 51 72 89 99 100 99 94 29 22 17
44 47 47 46 50 49 51 51 49 64 66 60 92 66 48 42 31 23 24 21 26 30 23 17 13 9 4 4 3 2 2 4 26 33 43 58 66 74 91 98 100 96 29 22 43
64 63 56 59 57 59 58 57 57 70 71 82 96 63 43 36 30 25 23 27 32 29 22 15 11 6 5 5 3 2 3 3 20 34 50 55 62 80 83 100 100 100 83 95 98
89 84 70 72 72 70 68 68 71 87 86 98 93 67 44 32 27 24 27 29 35 29 22 13 8 5 5 5 3 3 3 3 20 38 52 68 66 81 94 84 100 100 100 100 100
96 95 92 80 91 81 82 88 93 94 96 96 90 68 58 37 27 29 33 38 34 28 21 10 7 5 6 4 3 3 3 3 21 34 42 58 66 60 94 100 85 92 74 100 97
96 96 96 95 95 95 95 95 93 95 96 96 94 73 45 38 42 44 41 40 33 28 21 12 6 6 4 4 3 3 3 3 10 33 38 40 56 78 76 86 100 87 100 81 100
97 97 97 96 97 97 96 96 95 97 95 97 86 65 56 52 48 46 43 40 34 26 20 11 8 7 4 4 3 3 3 3 10 35 41 36 39 72 88 100 100 98 90 100 71
97 97 97 97 96 98 96 96 97 97 97 96 91 64 58 54 49 46 44 39 34 27 22 14 10 7 4 3 3 3 3 3 6 28 46 44 39 49 93 80 79 100 98 100 74
97 98 96 97 96 97 95 97 97 97 92 94 93 74 72 64 50 48 44 41 33 29 23 17 13 8 4 3 3 3 3 3 6 17 52 55 52 41 94 96 83 96 98 100 59
98 96 97 98 97 97 97 97 97 97 97 96 92 92 91 72 55 48 46 40 35 32 24 18 15 10 4 3 3 3 3 3 6 14 65 52 45 33 51 52 91 100 100 100 48
98 98 96 96 97 96 98 97 97 96 96 97 95 95 94 76 57 51 47 40 38 34 27 20 16 11 5 4 4 3 3 3 6 8 20 49 50 48 48 54 81 97 100 98 41
97 99 98 97 97 97 98 98 97 95 98 97 96 96 94 90 65 55 50 42 42 37 27 22 18 11 6 4 4 3 3 3 3 6 15 48 53 54 45 32 80 98 100 99 50
96 97 98 97 96 98 97 97 96 98 97 97 97 96 97 94 79 64 55 48 46 40 29 24 19 11 8 5 4 3 3 3 3 5 16 49 52 60 63 64 71 100 100 100 49
98 97 98 98 96 98 97 96 96 97 97 97 97 96 97 96 89 82 62 57 53 41 31 26 21 13 9 6 4 4 4 3 3 4 13 18 42 46 61 93 93 87 96 100 54
97 96 97 98 97 97 95 95 96 97 97 97 97 97 97 97 96 95 70 64 59 44 35 29 23 16 10 6 5 4 4 3 3 3 5 10 29 44 46 75 82 81 75 98 69
98 95 98 98 97 97 96 95 97 96 96 96 97 96 97 97 97 95 85 69 66 47 40 32 25 17 11 7 6 5 5 4 3 3 4 8 30 42 39 59 74 97 74 97 89
97 97 94 99 96 97 97 97 97 96 96 96 97 97 98 97 96 96 88 76 68 53 42 35 26 18 12 8 7 6 5 4 3 3 3 6 8 46 47 42 71 79 81 83 100
98 97 97 98 97 97 98 97 97 96 97 96 96 96 97 96 97 96 97 81 70 61 44 38 28 20 14 10 9 6 6 4 4 4 4 5 6 35 46 45 64 63 81 69 100
95 97 98 97 97 98 98 97 97 97 97 97 96 96 96 98 97 96 97 88 75 68 46 40 30 22 17 13 11 7 6 4 4 4 4 5 6 7 44 46 52 56 54 74 79
98 94 93 98 98 97 97 98 97 97 97 97 97 96 96 98 97 99 98 95 89 69 52 41 31 24 19 15 11 8 6 4 4 4 5 5 6 6 26 42 43 54 56 78 80
96 99 99 97 99 97 98 98 97 97 98 96 97 96 97 98 98 98 97 95 94 66 57 41 31 25 21 16 11 8 6 4 4 5 7 7 8 7 14 47 53 44 54 58 60
Wind_Speed
24 23 23 24 24 25 24 24 25 26 31 32 28 27 25 21 19 16 18 19 21 23 27 32 37 42 48 54 61 67 73 78 84 87 82 65 46 27 28 29 26 26 31 31 33
26 25 25 25 25 24 24 25 27 29 30 32 28 28 26 21 19 17 19 19 22 25 29 34 39 45 52 58 64 68 72 79 86 81 66 49 33 29 26 29 28 26 29 28 29
29 27 27 26 27 26 25 25 25 30 31 32 30 28 25 22 20 20 19 20 23 26 30 35 41 48 53 58 65 69 74 82 83 69 52 36 32 34 32 26 27 17 20 26 23
32 30 29 28 28 27 26 26 26 28 29 30 31 28 24 22 20 20 21 22 24 27 33 39 44 49 53 59 64 69 78 83 78 50 37 27 29 31 30 32 22 22 25 24 15
33 32 30 29 28 28 27 27 27 28 26 28 30 27 24 22 21 21 20 21 24 29 36 40 44 49 54 60 64 72 79 79 61 39 29 31 33 31 32 32 31 22 26 22 12
35 33 32 31 29 28 28 28 29 28 25 27 31 27 23 22 21 20 20 21 26 32 36 39 43 48 54 59 66 73 78 72 39 28 32 35 33 31 31 32 27 24 24 16 10
39 35 33 32 30 28 27 26 30 28 28 30 31 25 23 21 19 19 20 22 29 32 35 38 43 48 55 59 67 76 74 64 30 31 35 40 38 34 28 26 26 24 14 10 5
42 38 35 33 30 28 27 27 28 28 30 34 29 24 23 22 19 18 19 25 28 31 32 37 41 48 52 59 69 74 69 58 33 31 34 36 36 33 26 26 21 19 7 8 5
42 40 37 34 31 29 28 27 28 30 30 34 25 22 21 17 17 19 22 25 28 29 31 36 41 44 52 62 67 71 67 54 34 25 31 31 32 31 24 24 16 15 14 11 8
51 39 40 36 33 30 30 28 29 30 32 34 22 20 19 18 17 20 24 26 28 29 30 33 38 44 51 58 64 69 67 56 29 23 28 29 31 34 28 26 22 12 9 7 4
55 45 44 37 36 33 32 34 36 36 31 29 20 15 20 19 19 22 25 25 25 27 29 31 37 43 52 57 63 67 68 56 30 20 24 28 30 32 31 26 18 9 10 11 9
55 51 48 48 45 41 38 37 32 28 25 26 20 15 15 16 21 22 22 22 24 27 29 32 37 43 48 56 62 66 65 54 35 21 20 26 28 31 28 31 25 10 9 4 6
50 50 46 45 43 41 40 33 29 23 24 19 14 14 14 16 18 19 19 20 23 24 27 29 35 43 47 55 59 63 64 56 33 23 19 22 26 27 27 29 26 15 7 8 3
44 42 42 41 40 41 34 27 28 24 25 21 15 15 16 16 17 16 17 20 20 23 26 29 35 40 46 50 56 61 64 57 36 20 20 20 23 26 22 27 31 16 6 9 9
37 39 37 38 37 32 28 27 29 24 27 22 15 14 17 17 16 14 15 17 19 22 26 30 34 38 42 47 55 60 62 59 40 20 18 20 19 20 20 20 22 10 14 14 12
27 35 33 33 35 33 33 34 28 23 27 23 17 17 16 16 16 15 15 16 19 21 24 29 33 37 40 46 53 58 61 59 48 23 14 17 17 17 13 16 21 5 15 18 21
23 27 32 31 31 33 35 36 32 26 25 24 23 19 15 16 15 15 16 16 20 23 25 28 33 35 39 45 51 56 58 60 49 29 15 14 15 13 14 12 14 2 15 19 36
28 28 30 33 35 34 34 38 35 30 27 26 26 21 17 15 15 15 15 16 19 21 24 28 32 35 39 43 50 54 57 57 48 32 19 11 13 12 13 11 15 4 13 23 40
30 27 27 28 30 30 33 34 34 32 29 30 28 26 21 17 16 16 16 16 19 21 23 27 30 33 38 42 47 53 54 56 49 32 18 10 9 12 12 13 16 8 7 23 35
33 29 29 27 28 27 25 26 29 29 31 28 29 27 26 19 16 16 15 16 19 21 23 25 30 32 38 41 43 50 55 54 51 35 18 13 10 8 10 10 11 8 9 25 33
30 32 28 25 22 20 23 25 24 24 28 26 24 30 25 21 18 16 16 16 19 21 22 25 28 32 36 40 42 47 53 54 49 36 23 14 9 11 8 8 6 9 7 25 37
33 27 29 31 28 23 20 23 21 24 25 25 22 23 28 22 21 17 17 18 19 20 23 24 27 30 35 40 43 46 53 54 50 40 25 17 9 10 9 9 3 7 5 23 32
32 30 28 27 29 25 21 19 20 20 23 23 20 18 23 26 22 19 17 17 19 20 22 24 27 29 33 39 42 44 52 52 48 39 29 18 11 10 10 9 6 4 3 21 32
31 32 29 31 30 24 18 18 19 18 20 21 21 21 22 24 22 20 18 18 19 20 22 23 26 29 32 37 42 44 50 51 46 38 30 20 16 14 11 11 12 3 1 17 34
36 32 29 31 29 28 23 17 16 17 18 20 20 17 17 22 23 21 19 18 18 20 21 23 26 28 31 37 42 44 49 50 45 40 34 23 16 12 17 14 13 6 4 6 26
33 31 31 30 28 25 26 18 14 14 15 17 19 18 17 17 21 22 21 17 18 19 21 22 26 28 31 36 41 44 49 50 45 40 34 25 18 15 19 17 14 11 7 5 13
37 28 33 31 28 26 25 25 22 24 21 18 20 18 16 16 21 22 21 18 17 17 21 22 25 27 31 36 40 44 48 50 45 38 34 27 23 17 18 20 17 14 12 9 5
Wind_Direction
290 293 295 296 297 299 301 303 305 312 323 328 336 330 327 318 309 303 306 308 311 312 316 317 320 326 326 324 326 321 323 326 325 327 324 321 318 316 309 306 311 303 282 273 258
284 287 289 291 293 294 297 299 302 310 319 327 333 330 326 316 304 299 303 308 311 317 323 326 328 329 329 328 328 329 331 330 331 329 327 324 321 317 311 304 307 303 298 282 269
281 284 287 288 290 292 293 294 295 303 314 325 330 327 322 313 304 300 304 308 315 322 325 328 331 334 333 333 335 337 337 335 337 332 331 329 324 323 321 317 314 309 318 309 288
276 280 284 286 288 290 291 290 291 301 310 320 325 323 319 314 300 296 299 309 317 323 328 332 337 337 336 337 340 342 341 342 338 338 340 343 340 337 342 341 324 319 323 320 311
271 276 278 281 284 288 289 288 286 298 306 317 321 320 316 313 305 300 303 310 320 324 332 336 339 337 339 341 343 344 346 344 342 348 5 348 348 347 339 336 324 324 320 318 290
266 270 274 277 281 284 286 286 288 295 303 313 319 317 313 307 302 299 304 314 315 324 333 338 339 340 340 345 345 347 349 345 345 357 358 354 353 344 335 326 326 321 309 316 305
263 265 268 274 276 280 283 283 286 289 294 309 314 312 309 301 291 293 304 309 316 328 336 340 341 343 345 346 348 351 351 349 340 349 349 345 345 345 338 323 327 315 317 334 338
259 262 265 269 272 276 279 279 278 281 291 305 309 309 311 300 285 292 300 307 323 331 339 341 343 346 349 347 353 354 353 349 342 342 346 345 345 348 337 341 333 335 358 359 83
256 263 264 267 269 271 272 275 274 274 287 303 302 306 311 296 284 292 300 314 325 332 341 342 346 348 350 352 355 358 356 352 338 343 350 350 350 349 346 360 355 31 39 51 27
250 257 263 264 265 267 267 266 264 279 292 302 299 305 310 295 285 294 302 313 323 333 341 343 348 353 350 353 357 360 359 355 345 340 355 355 359 356 353 2 357 21 48 58 46
254 251 253 258 260 263 262 268 280 293 295 293 289 292 304 289 288 295 302 314 326 331 340 349 349 350 352 355 357 1 1 356 349 336 349 358 357 353 355 9 4 3 23 28 330
260 257 258 262 263 264 267 281 293 294 293 287 291 292 290 291 297 296 303 317 326 332 341 346 353 350 355 358 358 2 2 357 350 339 337 349 358 350 353 357 360 335 30 113 339
262 264 263 270 269 270 283 285 287 292 293 281 280 276 287 298 303 299 309 318 324 332 339 346 348 351 357 360 360 3 3 359 347 339 331 347 354 351 349 354 359 5 66 38 166
257 263 266 270 276 275 280 284 284 287 292 276 267 259 285 296 296 296 305 315 321 330 337 342 347 356 359 1 2 5 5 2 350 336 338 340 350 349 358 357 352 341 105 97 123
260 262 262 261 275 277 275 276 266 279 291 275 267 261 279 287 291 291 302 309 319 327 335 340 349 356 359 1 5 6 4 3 357 339 328 344 347 350 350 337 346 355 148 110 140
274 256 259 261 265 273 271 267 270 275 283 268 251 262 275 281 283 287 297 308 317 327 333 336 347 355 359 1 4 6 4 2 1 343 321 326 342 352 349 345 350 40 144 123 158
281 269 259 259 262 263 267 265 267 261 275 271 259 260 268 277 281 285 298 308 319 324 329 336 345 355 358 2 3 5 4 2 2 348 319 313 338 347 348 345 355 324 149 152 167
277 272 264 262 262 263 266 263 271 253 265 276 262 252 257 269 275 281 296 305 312 321 325 333 345 354 358 1 5 5 4 3 359 349 332 310 326 354 356 1 9 327 144 149 175
283 266 268 270 268 268 266 269 272 257 259 266 276 261 256 261 270 277 287 297 308 317 322 332 344 353 358 1 6 6 3 2 358 352 336 302 304 348 350 17 0 349 188 151 182
278 261 262 267 271 266 271 274 272 267 258 261 274 269 263 257 254 268 280 293 305 313 320 332 342 351 357 360 2 3 3 0 357 352 337 317 269 311 349 342 349 350 207 158 176
268 259 259 262 266 277 274 279 267 268 260 259 271 277 265 259 254 261 276 288 302 310 319 330 341 349 356 357 359 0 0 358 356 351 339 318 284 252 299 307 345 339 213 167 179
263 264 269 257 260 272 282 278 277 263 265 261 264 277 272 266 258 257 269 286 299 308 318 329 337 348 353 354 356 359 359 356 355 352 342 317 274 243 241 283 332 338 209 194 170
264 264 271 255 259 266 283 274 273 267 262 263 268 269 272 275 263 263 268 282 293 307 316 327 336 344 351 354 353 359 357 354 353 353 346 324 299 236 217 251 253 357 205 204 187
264 262 268 259 262 263 273 273 260 264 258 253 256 264 273 268 263 262 265 277 289 304 314 322 334 342 348 350 353 357 355 351 351 351 349 325 295 229 213 214 238 194 210 204 199
263 262 266 268 266 257 261 271 252 269 263 259 259 263 277 278 268 263 262 273 287 301 313 322 332 340 344 348 349 354 351 348 349 350 348 337 297 254 220 211 223 216 201 197 213
256 257 268 259 256 263 255 258 257 270 276 272 267 269 275 285 268 262 259 266 281 299 311 321 329 339 343 346 348 350 349 347 349 348 345 341 316 270 225 212 209 220 210 205 219
256 259 258 265 258 258 252 255 264 263 270 277 275 275 269 285 270 261 259 266 281 298 312 320 329 337 342 345 348 347 346 346 348 346 342 340 327 291 229 213 203 204 209 219 178